�N����,����,�~����,�C��,���x,�C��,����,���ϕ���,�ő�u�ԕ���,�ő厞����,���˗�,�I�_���x,�n�����x,�ő啗���N��,DTYPE
"21/07/28","00:10",0.0,25.5,81.8,995.8,326.6,0.7,2.0,330.4,0.00,22.2,26.5,"00:01:12",1
"21/07/28","00:20",0.0,25.4,82.2,995.6,338.9,1.1,1.8,343.4,0.00,22.2,26.6,"00:16:24",1
"21/07/28","00:30",0.0,25.4,82.6,995.8,343.1,1.2,2.1,339.5,0.00,22.3,26.5,"00:21:12",1
"21/07/28","00:40",0.0,25.3,82.9,996.0,330.4,1.2,2.6,344.0,0.00,22.2,26.4,"00:37:04",1
"21/07/28","00:50",0.0,25.4,82.9,995.6,337.3,1.6,2.8,342.6,0.00,22.3,26.4,"00:46:00",1
"21/07/28","01:00",0.0,25.3,83.0,995.8,337.6,1.7,3.9,337.8,0.00,22.2,26.5,"00:58:56",1
"21/07/28","01:10",0.0,25.4,82.9,995.8,334.6,1.6,3.1,337.6,0.00,22.3,26.5,"01:00:40",1
"21/07/28","01:20",0.0,25.3,82.9,995.3,341.8,1.2,2.2,342.9,0.00,22.2,26.4,"01:17:28",1
"21/07/28","01:30",0.0,25.2,83.1,995.6,338.9,1.5,2.9,343.8,0.00,22.2,26.3,"01:24:40",1
"21/07/28","01:40",0.0,25.1,83.2,995.8,337.8,1.6,2.8,301.7,0.00,22.1,26.3,"01:32:56",1
"21/07/28","01:50",0.0,25.1,83.1,995.8,319.4,1.6,3.2,323.7,0.00,22.1,26.1,"01:42:48",1
"21/07/28","02:00",0.0,25.1,82.9,995.6,309.5,1.3,2.8,301.2,0.00,22.0,26.3,"01:54:24",1
"21/07/28","02:10",0.0,25.2,82.8,995.8,332.3,1.5,3.3,349.8,0.00,22.1,26.2,"02:04:00",1
"21/07/28","02:20",0.0,25.1,82.7,995.8,332.7,2.1,4.0,339.0,0.00,22.0,26.2,"02:12:08",1
"21/07/28","02:30",0.0,25.0,82.8,995.8,326.6,1.6,3.5,339.5,0.00,21.9,26.1,"02:24:00",1
"21/07/28","02:40",0.0,24.9,82.9,995.8,333.9,1.8,3.7,339.9,0.00,21.8,26.3,"02:39:28",1
"21/07/28","02:50",0.0,24.7,83.1,995.6,333.6,1.6,2.9,339.3,0.00,21.7,25.9,"02:44:48",1
"21/07/28","03:00",0.0,24.5,83.4,995.8,345.0,1.2,2.4,326.4,0.00,21.5,26.0,"02:52:40",1
"21/07/28","03:10",0.0,24.4,83.6,995.8,354.7,1.0,2.0,325.5,0.00,21.5,26.1,"03:05:36",1
"21/07/28","03:20",0.0,24.1,84.0,995.3,348.0,0.5,1.0,326.1,0.00,21.3,26.0,"03:15:20",1
"21/07/28","03:30",0.0,23.7,84.6,995.8,345.7,1.0,1.6,338.9,0.00,21.0,26.1,"03:23:44",1
"21/07/28","03:40",0.0,23.5,85.5,995.8,350.2,0.8,1.6,354.7,0.00,21.0,26.0,"03:38:08",1
"21/07/28","03:50",0.0,23.3,86.2,995.8,349.2,1.1,1.3,353.5,0.00,20.9,26.0,"03:42:48",1
"21/07/28","04:00",0.0,22.9,86.6,995.8,334.0,0.8,1.6,325.0,0.00,20.6,25.7,"03:52:24",1
"21/07/28","04:10",0.0,22.7,87.1,995.8,294.1,0.8,1.2,324.3,0.00,20.5,25.9,"04:02:16",1
"21/07/28","04:20",0.0,22.7,87.6,996.0,323.3,0.8,1.3,331.8,0.00,20.6,25.8,"04:11:20",1
"21/07/28","04:30",0.0,22.5,88.0,996.0,308.6,0.8,1.3,350.2,0.00,20.5,25.7,"04:27:44",1
"21/07/28","04:40",0.0,22.5,88.6,996.3,333.5,1.3,1.7,336.5,0.00,20.6,25.7,"04:36:16",1
"21/07/28","04:50",0.0,22.3,88.8,996.5,323.1,0.8,1.6,339.7,0.00,20.4,25.7,"04:41:12",1
"21/07/28","05:00",0.0,22.2,89.1,996.5,323.9,0.8,1.4,320.2,0.00,20.4,25.5,"04:59:12",1
"21/07/28","05:10",0.0,22.3,89.5,996.3,333.2,1.1,1.8,333.6,0.00,20.5,25.7,"05:06:48",1
"21/07/28","05:20",0.0,22.5,89.9,996.5,347.3,1.1,1.7,349.3,0.00,20.8,25.5,"05:11:44",1
"21/07/28","05:30",0.0,22.6,90.1,996.5,340.7,1.2,1.8,337.5,0.00,20.9,25.4,"05:26:16",1
"21/07/28","05:40",0.0,22.8,90.3,996.3,343.2,1.3,2.5,336.6,0.00,21.2,25.4,"05:34:32",1
"21/07/28","05:50",0.0,22.7,90.4,996.5,337.5,0.8,1.4,344.2,0.00,21.1,25.5,"05:48:08",1
"21/07/28","06:00",0.0,22.8,90.6,996.5,337.1,1.1,1.8,340.5,0.00,21.2,25.4,"05:58:16",1
"21/07/28","06:10",0.0,22.8,90.6,996.3,339.5,1.1,2.1,333.7,0.00,21.2,25.2,"06:01:44",1
"21/07/28","06:20",0.0,22.7,90.7,996.5,340.9,1.3,2.0,351.9,0.00,21.1,25.3,"06:16:48",1
"21/07/28","06:30",0.0,22.8,90.8,996.7,331.3,1.6,3.5,345.5,0.00,21.3,25.3,"06:28:40",1
"21/07/28","06:40",0.0,23.4,90.6,996.5,333.4,2.2,4.0,339.4,0.03,21.8,25.3,"06:36:56",1
"21/07/28","06:50",0.0,24.3,90.2,996.5,326.6,1.3,3.1,340.9,0.06,22.6,25.3,"06:40:24",1
"21/07/28","07:00",0.0,24.6,89.1,996.5,328.8,1.6,2.7,330.3,0.08,22.7,25.2,"06:56:40",1
"21/07/28","07:10",0.0,25.2,87.4,996.7,327.0,1.7,3.4,347.7,0.09,23.0,25.3,"07:00:40",1
"21/07/28","07:20",0.0,25.5,85.4,996.7,342.7,2.1,4.2,341.8,0.08,22.9,25.2,"07:15:20",1
"21/07/28","07:30",0.0,25.7,83.7,996.7,321.8,1.3,2.6,342.0,0.08,22.8,25.4,"07:25:12",1
"21/07/28","07:40",0.0,26.3,81.9,996.5,318.5,1.5,3.4,352.9,0.16,23.0,25.3,"07:30:32",1
"21/07/28","07:50",0.0,27.3,79.3,996.3,296.4,0.7,2.5,331.0,0.25,23.4,25.3,"07:43:20",1
"21/07/28","08:00",0.0,28.1,75.3,996.0,11.6,0.6,1.7,228.9,0.24,23.4,25.3,"07:52:32",1
"21/07/28","08:10",0.0,29.2,70.4,996.0,178.7,0.8,2.2,193.1,0.30,23.3,25.3,"08:06:32",1
"21/07/28","08:20",0.0,29.5,68.0,996.5,91.5,0.6,1.4,179.5,0.19,23.0,25.4,"08:10:24",1
"21/07/28","08:30",0.0,29.3,68.0,996.0,286.7,0.8,3.2,352.9,0.22,22.8,25.4,"08:26:48",1
"21/07/28","08:40",0.0,28.5,69.2,996.3,319.1,1.1,2.9,352.1,0.13,22.3,25.4,"08:36:40",1
"21/07/28","08:50",0.0,28.2,71.5,995.6,315.1,1.0,2.2,350.1,0.16,22.6,25.7,"08:43:52",1
"21/07/28","09:00",0.0,28.1,72.7,995.6,311.1,1.2,2.9,257.0,0.20,22.8,25.6,"08:53:44",1
"21/07/28","09:10",0.0,28.9,72.7,995.6,328.2,1.1,2.7,349.2,0.34,23.5,25.6,"09:04:32",1
"21/07/28","09:20",0.0,29.4,69.7,996.0,324.0,1.5,3.6,336.8,0.37,23.3,25.8,"09:11:20",1
"21/07/28","09:30",0.0,29.7,69.3,996.0,316.6,1.2,2.9,345.9,0.34,23.5,25.9,"09:28:16",1
"21/07/28","09:40",0.0,29.7,68.5,996.0,299.2,1.1,2.2,341.6,0.33,23.3,25.7,"09:35:28",1
"21/07/28","09:50",0.0,29.9,67.3,996.3,313.8,1.1,3.2,346.9,0.43,23.2,26.0,"09:46:08",1
"21/07/28","10:00",0.0,30.5,65.1,996.3,175.5,0.5,1.1,167.0,0.22,23.2,25.9,"09:53:12",1
"21/07/28","10:10",0.0,30.2,64.7,997.0,262.7,0.5,1.6,249.0,0.12,22.9,26.2,"10:09:12",1
"21/07/28","10:20",0.0,29.8,66.5,996.5,333.2,1.5,3.6,342.2,0.19,22.9,26.2,"10:18:56",1
"21/07/28","10:30",0.0,29.8,67.6,996.3,283.8,1.3,3.5,305.4,0.29,23.2,26.3,"10:28:24",1
"21/07/28","10:40",0.0,29.8,67.5,996.3,258.7,1.5,3.6,260.6,0.34,23.2,26.5,"10:33:12",1
"21/07/28","10:50",0.0,29.8,67.7,996.3,274.3,1.7,4.0,246.3,0.24,23.2,26.4,"10:41:20",1
"21/07/28","11:00",0.0,29.9,67.4,996.0,297.2,1.5,3.4,325.4,0.27,23.2,26.3,"10:52:56",1
"21/07/28","11:10",0.0,29.8,67.9,995.8,313.7,1.5,3.4,341.5,0.17,23.3,26.4,"11:02:00",1
"21/07/28","11:20",0.0,30.0,69.3,995.8,318.2,1.5,2.9,329.9,0.31,23.8,26.4,"11:10:56",1
"21/07/28","11:30",0.0,31.1,64.2,996.3,319.4,1.3,2.8,357.8,0.44,23.6,26.7,"11:24:24",1
"21/07/28","11:40",0.0,30.0,66.1,996.0,315.0,1.2,2.6,318.8,0.10,23.0,26.7,"11:32:24",1
"21/07/28","11:50",0.0,29.7,67.8,995.8,300.7,0.8,1.8,308.9,0.16,23.2,26.6,"11:42:00",1
"21/07/28","12:00",0.0,31.5,63.7,995.8,269.4,1.5,3.6,231.3,0.62,23.8,26.6,"11:56:40",1
"21/07/28","12:10",0.0,31.6,61.4,996.0,242.7,0.7,2.4,243.9,0.25,23.3,26.9,"12:04:56",1
"21/07/28","12:20",0.0,31.9,62.2,996.0,271.8,1.2,3.1,229.9,0.45,23.8,26.8,"12:14:00",1
"21/07/28","12:30",0.0,32.2,59.0,996.0,211.1,1.2,3.4,239.6,0.40,23.2,26.9,"12:22:56",1
"21/07/28","12:40",0.0,31.3,61.3,996.0,277.8,1.2,2.7,225.4,0.11,23.0,27.0,"12:36:56",1
"21/07/28","12:50",0.0,30.7,63.8,995.6,325.4,1.5,3.4,341.4,0.18,23.1,26.8,"12:42:48",1
"21/07/28","13:00",0.0,30.7,63.6,995.3,312.8,1.3,3.3,232.2,0.21,23.0,27.2,"12:54:40",1
"21/07/28","13:10",0.0,30.8,63.6,995.6,302.5,1.1,2.6,341.7,0.16,23.1,27.2,"13:03:12",1
"21/07/28","13:20",0.0,31.2,63.2,995.1,293.1,0.7,2.0,355.3,0.19,23.4,27.3,"13:16:16",1
"21/07/28","13:30",0.0,31.8,61.4,995.3,318.4,0.7,1.7,346.2,0.22,23.5,27.4,"13:21:12",1
"21/07/28","13:40",0.0,31.7,60.0,995.6,209.4,1.2,2.9,211.4,0.23,23.0,27.2,"13:37:52",1
"21/07/28","13:50",0.0,31.7,59.7,995.8,223.3,1.3,2.6,232.9,0.21,22.9,27.2,"13:47:28",1
"21/07/28","14:00",0.0,32.4,58.9,995.6,252.2,0.7,3.2,230.7,0.35,23.4,27.4,"13:50:40",1
"21/07/28","14:10",0.0,33.3,56.9,996.3,123.4,0.8,2.8,221.1,0.36,23.6,27.3,"14:01:04",1
"21/07/28","14:20",0.0,32.5,58.3,996.3,174.0,1.6,4.0,204.6,0.25,23.3,27.5,"14:15:12",1
"21/07/28","14:30",0.0,32.3,58.1,996.3,124.9,1.1,2.0,194.3,0.22,23.0,27.5,"14:26:00",1
"21/07/28","14:40",0.0,31.8,59.3,995.8,204.9,1.3,4.9,347.5,0.13,22.9,27.6,"14:30:02",1
"21/07/28","14:50",0.0,31.0,63.3,995.3,350.5,1.1,4.0,348.7,0.05,23.2,27.5,"14:40:08",1
"21/07/28","15:00",0.0,29.9,65.4,995.3,345.8,1.5,3.2,345.3,0.04,22.7,27.6,"14:55:28",1
"21/07/28","15:10",0.8,29.8,67.5,994.8,339.0,1.1,2.7,353.3,0.01,23.2,27.6,"15:01:20",1
"21/07/28","15:20",0.2,28.6,70.8,993.9,172.1,0.5,1.3,49.6,0.03,22.8,27.5,"15:10:08",1
"21/07/28","15:30",0.0,28.4,75.2,994.1,107.7,0.5,2.2,131.4,0.09,23.6,27.5,"15:28:56",1
"21/07/28","15:40",0.0,28.1,78.6,994.4,132.4,0.8,1.9,126.9,0.09,24.1,27.6,"15:34:40",1
"21/07/28","15:50",0.0,27.9,80.5,994.6,74.0,0.7,2.1,48.5,0.08,24.3,27.7,"15:45:44",1
"21/07/28","16:00",0.0,27.9,81.7,994.6,41.6,0.6,1.7,102.0,0.10,24.5,27.5,"15:52:08",1
"21/07/28","16:10",0.0,27.8,82.3,994.4,89.8,0.6,1.8,37.6,0.09,24.5,27.4,"16:01:04",1
"21/07/28","16:20",0.0,27.9,82.6,994.8,26.3,0.6,1.3,282.4,0.08,24.7,27.6,"16:16:56",1
"21/07/28","16:30",0.0,27.9,82.6,994.6,2.7,0.3,1.7,342.8,0.07,24.7,27.7,"16:20:16",1
"21/07/28","16:40",0.0,28.0,82.4,995.1,43.6,0.5,1.4,36.2,0.09,24.8,27.4,"16:34:32",1
"21/07/28","16:50",0.0,28.1,82.1,994.8,69.7,0.3,1.0,89.5,0.08,24.8,27.4,"16:40:40",1
"21/07/28","17:00",0.0,28.1,81.4,994.6,32.0,0.6,1.4,0.8,0.10,24.7,27.7,"16:54:56",1
"21/07/28","17:10",0.0,28.9,79.3,994.4,17.6,0.6,1.7,5.3,0.21,25.0,27.5,"17:06:48",1
"21/07/28","17:20",0.0,29.2,77.2,994.4,7.0,0.7,1.7,7.1,0.11,24.8,27.6,"17:16:48",1
"21/07/28","17:30",0.0,29.2,76.0,994.6,42.1,0.7,1.7,32.4,0.09,24.6,27.7,"17:25:52",1
"21/07/28","17:40",0.0,29.2,76.1,994.4,17.3,0.5,1.1,318.9,0.07,24.6,27.6,"17:30:24",1
"21/07/28","17:50",0.0,29.1,75.4,994.4,12.2,0.7,1.9,353.6,0.05,24.3,27.7,"17:43:44",1
"21/07/28","18:00",0.0,29.2,74.9,994.4,52.3,0.6,1.1,60.7,0.04,24.3,27.7,"17:53:04",1
"21/07/28","18:10",0.0,29.1,75.1,994.4,54.6,0.6,1.3,12.3,0.04,24.3,27.7,"18:00:16",1
"21/07/28","18:20",0.0,28.8,75.5,994.1,293.9,0.8,2.1,342.3,0.03,24.1,27.5,"18:19:04",1
"21/07/28","18:30",0.0,28.4,74.6,994.1,354.5,0.8,2.0,346.9,0.02,23.5,27.5,"18:20:40",1
"21/07/28","18:40",0.0,28.8,75.3,994.1,354.7,1.0,2.1,328.4,0.01,24.0,27.7,"18:32:32",1
"21/07/28","18:50",0.0,28.5,77.5,994.6,346.8,0.6,1.2,28.2,0.00,24.2,27.6,"18:43:36",1
"21/07/28","19:00",0.0,28.0,79.4,994.8,353.4,0.7,1.6,19.9,0.00,24.1,27.6,"18:53:28",1
"21/07/28","19:10",0.0,27.7,80.6,994.8,357.7,0.6,1.8,54.6,0.00,24.1,27.4,"19:06:00",1
"21/07/28","19:20",0.0,27.3,81.9,994.8,8.5,0.7,1.6,354.3,0.00,24.0,27.3,"19:16:56",1
"21/07/28","19:30",0.0,26.9,83.0,995.1,351.8,0.7,1.8,11.8,0.00,23.8,27.4,"19:28:16",1
"21/07/28","19:40",0.0,26.6,83.9,995.1,351.3,0.7,1.4,1.2,0.00,23.7,27.5,"19:34:16",1
"21/07/28","19:50",0.0,26.3,84.5,995.3,308.1,0.6,1.7,329.1,0.00,23.5,27.4,"19:45:52",1
"21/07/28","20:00",0.0,26.4,84.1,995.6,340.4,1.3,2.8,357.7,0.00,23.5,27.4,"19:58:16",1
"21/07/28","20:10",0.0,26.6,83.0,995.8,326.9,1.0,1.9,5.3,0.00,23.5,27.3,"20:01:04",1
"21/07/28","20:20",0.0,26.9,82.1,995.8,347.0,0.7,1.9,330.3,0.00,23.6,27.2,"20:18:00",1
"21/07/28","20:30",0.0,26.5,82.1,995.8,333.7,0.6,1.4,5.0,0.00,23.2,27.2,"20:24:32",1
"21/07/28","20:40",0.0,26.1,82.4,995.8,307.4,0.3,0.9,353.1,0.00,22.9,27.1,"20:30:02",1
"21/07/28","20:50",0.0,26.1,83.3,996.3,349.4,0.6,1.6,7.6,0.00,23.1,27.1,"20:49:20",1
"21/07/28","21:00",0.0,25.8,84.0,996.3,345.2,0.7,1.4,2.4,0.00,22.9,27.1,"20:50:08",1
"21/07/28","21:10",0.0,25.6,84.8,996.0,340.9,0.7,1.3,334.4,0.00,22.9,27.1,"21:00:40",1
"21/07/28","21:20",0.0,25.5,85.7,996.0,352.7,0.8,1.3,0.0,0.00,23.0,27.1,"21:16:32",1
"21/07/28","21:30",0.0,25.4,86.3,996.5,331.1,0.8,1.3,333.4,0.00,23.0,27.0,"21:28:24",1
"21/07/28","21:40",0.0,25.2,86.7,996.5,335.4,1.0,1.9,334.0,0.00,22.9,26.8,"21:36:56",1
"21/07/28","21:50",0.0,25.4,86.8,996.7,330.6,0.7,1.6,328.9,0.00,23.1,27.0,"21:41:04",1
"21/07/28","22:00",0.0,25.4,86.6,996.7,298.1,0.7,1.4,250.6,0.00,23.0,27.1,"21:52:00",1
"21/07/28","22:10",0.0,25.5,86.4,996.7,291.1,0.7,1.1,267.7,0.00,23.1,26.9,"22:00:08",1
"21/07/28","22:20",0.0,25.6,86.1,996.7,347.8,0.8,1.7,339.7,0.00,23.1,27.0,"22:18:00",1
"21/07/28","22:30",0.0,25.2,86.1,997.0,334.2,0.6,1.2,338.3,0.00,22.7,26.8,"22:21:04",1
"21/07/28","22:40",0.0,25.1,86.2,996.7,291.5,0.2,1.0,328.4,0.00,22.7,26.9,"22:30:32",1
"21/07/28","22:50",0.0,25.1,86.4,997.0,339.0,1.1,1.9,348.1,0.00,22.7,26.8,"22:43:36",1
"21/07/28","23:00",0.0,25.3,86.3,997.2,325.0,1.1,1.7,348.9,0.00,22.9,26.7,"22:58:40",1
"21/07/28","23:10",0.0,25.5,85.9,997.2,312.6,0.8,1.3,335.7,0.00,23.0,26.4,"23:01:04",1
"21/07/28","23:20",0.0,25.5,85.6,997.2,323.0,1.1,1.7,346.1,0.00,22.9,26.8,"23:18:24",1
"21/07/28","23:30",0.0,25.3,85.5,997.4,338.2,1.1,1.7,343.0,0.00,22.7,26.6,"23:24:56",1
"21/07/28","23:40",0.0,25.1,85.7,997.4,336.7,1.1,2.0,340.8,0.00,22.6,26.6,"23:35:28",1
"21/07/28","23:50",0.0,25.0,85.6,997.2,342.3,0.8,2.0,342.7,0.00,22.5,26.5,"23:40:08",1
"21/07/28","24:00",0.0,24.8,85.7,997.4,339.8,0.7,1.0,344.6,0.00,22.3,26.5,"23:54:08",1
